Wind_Speed
18 16 15 14 15 17 20 21 21 20 19 18 16 15 13 12 11 9 9 8 8 7 7 6 5 4 3 4 6 7 8 9 10 11 11 12 12 12 13 13 13 13 13 12 12 12 11 11 11 12 12 13 14 14 15 15 15 15 15 15 15 15 14 14 13 12 12 13 12 12 13 12 11 11 12 13 14 15 12 8 10 12 13 16 16
19 17 15 14 14 15 17 21 22 21 20 20 19 17 15 14 13 12 11 10 10 10 9 8 7 5 4 4 5 6 7 8 9 10 11 12 12 13 13 13 13 13 13 13 13 13 12 12 12 12 12 13 13 14 14 15 15 15 15 16 16 15 15 15 14 14 13 12 12 12 11 11 10 10 11 11 12 14 12 8 10 13 12 14 15
20 19 18 17 17 15 15 18 22 23 22 21 21 19 17 15 14 13 13 13 12 12 11 10 9 7 6 6 6 6 7 8 9 9 10 11 12 12 13 13 13 13 13 13 13 13 13 13 13 13 12 13 13 13 14 14 15 15 15 15 15 15 15 15 15 15 14 13 13 12 11 10 9 9 9 9 9 12 11 8 11 14 12 12 12
22 21 20 20 21 19 16 17 20 23 24 23 22 21 20 18 16 15 15 15 14 14 13 12 11 10 9 8 8 7 7 7 8 9 9 10 11 12 12 13 13 13 13 13 13 13 13 13 13 13 13 13 13 13 14 14 14 15 15 15 15 15 15 15 15 15 15 14 13 12 10 10 9 9 9 7 6 9 9 8 12 13 12 11 11
24 23 21 20 21 23 21 18 20 22 25 25 24 24 23 21 19 17 17 16 16 16 15 14 12 12 11 11 10 9 8 8 8 8 9 9 10 11 12 12 12 12 12 12 13 13 13 13 13 13 13 13 13 13 13 13 14 15 15 15 15 15 15 15 15 15 15 14 13 12 11 10 10 10 9 7 6 7 8 10 12 12 11 12 12
22 21 20 19 20 24 25 22 19 20 24 27 27 26 26 25 23 21 20 19 18 17 17 16 14 14 13 13 13 12 11 10 9 9 9 9 10 11 12 12 12 12 12 12 12 13 13 13 13 13 13 13 13 13 13 14 14 14 14 15 15 15 14 14 15 15 15 14 14 13 12 12 11 10 10 8 7 7 8 10 11 12 12 12 14
23 21 21 22 22 23 23 20 16 19 25 28 29 30 29 28 27 25 23 22 20 19 19 18 17 16 16 16 15 15 14 12 11 10 10 11 12 12 12 12 12 12 12 12 12 13 13 13 13 13 13 13 13 13 14 14 15 14 15 15 15 15 15 14 14 15 15 14 14 14 14 13 13 12 11 10 10 9 10 11 12 13 13 13 13
27 25 24 25 26 24 20 16 15 20 26 28 30 32 32 31 30 28 27 25 23 22 21 20 20 20 19 19 18 17 16 15 13 12 12 12 13 14 13 13 12 12 12 12 12 12 12 12 12 13 13 13 13 13 14 15 15 15 16 16 16 16 16 15 15 16 16 16 16 17 17 17 16 15 14 13 13 13 13 13 14 14 15 14 14
29 29 27 27 28 25 21 19 20 22 25 28 32 33 34 33 32 31 30 29 27 25 24 23 23 22 21 21 20 20 18 18 16 14 14 14 14 15 14 14 13 13 12 12 11 12 11 11 11 12 12 12 13 14 14 15 15 16 17 18 18 18 18 18 18 18 18 19 20 21 21 21 21 20 18 17 17 17 16 16 16 16 16 15 14
32 34 33 32 31 29 26 28 30 31 33 36 36 33 33 34 35 34 33 32 31 30 28 27 26 24 23 23 23 22 21 20 18 16 15 16 16 16 15 15 14 13 13 12 11 11 11 10 10 10 10 11 11 12 14 15 15 16 17 17 17 18 19 19 19 19 20 21 22 24 24 24 24 23 22 21 21 21 19 19 19 18 16 15 14
36 36 37 38 36 34 32 32 35 38 41 43 42 37 35 36 37 37 37 35 34 32 31 30 28 26 26 25 25 24 23 22 20 17 17 17 17 17 16 16 15 14 13 12 12 12 12 11 9 9 9 10 10 11 12 13 13 14 15 16 16 16 18 18 18 19 20 21 22 24 25 25 24 24 23 23 23 22 22 21 21 19 17 16 15
43 41 41 41 38 36 36 35 36 38 40 40 41 41 41 42 42 40 38 36 35 35 34 32 31 30 28 28 27 26 25 24 21 19 18 18 19 18 17 17 16 15 13 12 12 12 12 12 10 9 9 9 9 9 10 11 11 12 13 14 14 15 15 16 16 18 19 20 21 23 24 24 23 23 22 21 21 20 20 20 20 18 16 15 15
48 50 47 44 41 38 38 38 38 40 41 40 39 41 44 46 44 40 37 34 33 35 36 35 34 33 31 30 29 28 27 26 23 21 18 18 19 19 19 18 17 16 13 12 12 12 13 13 12 11 10 9 8 7 8 9 9 9 10 11 12 13 13 14 14 15 17 18 19 20 21 21 21 20 20 19 18 16 16 17 17 16 15 14 13
49 53 51 48 45 41 40 43 44 44 44 42 42 44 45 46 45 41 38 36 33 34 36 35 34 34 33 32 31 30 29 28 25 22 19 18 20 21 20 19 18 16 14 13 13 13 13 13 13 12 11 10 9 7 6 6 6 7 7 8 9 10 11 12 12 13 14 15 16 17 18 18 18 18 18 16 15 14 13 13 13 13 12 12 12
48 52 52 51 51 47 44 45 46 45 44 44 44 45 45 46 48 45 43 40 36 34 34 33 32 32 31 30 30 30 30 28 27 24 21 18 20 22 22 21 19 17 15 14 13 13 14 14 14 13 13 11 10 9 6 4 4 4 4 5 5 7 8 9 10 11 12 13 13 14 15 15 15 15 15 15 13 11 10 9 9 9 10 10 10
52 55 55 52 53 52 48 45 42 42 44 45 46 46 45 47 49 48 45 42 38 35 34 32 29 29 28 28 28 29 29 28 28 27 24 20 21 23 24 23 20 18 16 14 14 14 14 15 14 14 14 13 12 11 8 4 4 4 4 3 2 3 5 6 7 8 10 11 12 12 13 13 12 13 13 13 11 9 8 7 6 6 7 8 9
57 58 59 56 54 53 52 49 43 41 43 45 46 47 47 47 47 46 45 42 39 36 34 31 29 28 27 26 26 26 26 27 28 28 26 23 22 24 25 24 22 19 16 14 14 14 15 15 15 15 14 13 14 14 10 6 5 4 5 4 3 1 2 4 5 7 8 9 11 11 11 11 11 12 12 11 11 9 7 4 4 4 5 6 7
61 61 63 62 59 56 56 57 53 47 44 43 44 46 48 47 46 46 46 45 42 39 36 33 30 28 26 25 24 25 25 26 27 28 28 26 25 26 26 26 25 21 17 15 15 16 16 15 15 15 14 13 15 16 13 9 7 5 6 7 7 5 4 4 5 7 7 8 9 11 11 12 11 12 12 11 10 11 9 5 2 1 1 2 3
65 63 64 66 66 62 59 60 60 56 51 46 44 47 49 48 46 46 47 47 45 41 38 36 33 30 28 25 23 23 23 24 26 27 28 27 27 27 27 27 26 23 19 17 17 18 17 16 16 15 14 14 16 17 16 12 9 7 7 9 10 10 10 10 10 10 11 10 10 10 11 12 12 12 12 12 11 11 11 7 4 1 1 1 1
68 67 65 66 68 68 65 62 61 61 58 53 48 48 50 49 48 47 47 47 46 43 39 37 36 35 32 29 25 22 20 21 23 26 28 29 29 29 29 29 27 25 21 19 19 20 19 18 17 16 16 16 17 18 18 15 11 7 7 10 11 11 11 11 11 12 12 12 12 12 12 12 12 12 13 13 13 12 11 9 6 4 4 3 3
70 70 68 67 67 70 70 66 63 63 63 60 54 50 49 50 50 48 48 47 45 44 42 40 39 38 36 32 30 28 25 22 21 25 30 33 32 31 31 30 28 26 23 21 21 22 21 20 18 18 18 18 18 19 18 15 11 7 7 10 10 10 10 11 11 12 12 12 12 13 13 14 13 13 13 14 15 14 13 11 9 8 7 6 5
72 72 71 70 69 70 71 71 68 66 65 65 63 57 53 51 50 49 49 48 46 45 44 43 41 39 37 36 36 36 33 31 29 30 33 35 35 34 33 31 29 27 25 24 23 24 23 22 21 20 20 20 19 19 17 15 11 7 7 8 8 9 10 10 10 11 11 12 12 13 14 15 15 15 14 15 15 15 14 14 13 11 9 8 8
74 73 73 73 72 71 72 72 72 70 68 68 69 66 60 55 51 50 49 49 48 47 46 43 42 40 38 38 39 39 37 36 36 38 40 40 36 33 32 31 30 29 28 27 26 25 25 25 23 22 22 22 21 20 19 15 11 8 7 8 8 9 10 10 10 10 11 11 12 12 13 14 16 16 16 16 17 17 17 17 17 17 16 16 18
77 76 75 75 75 74 74 73 72 73 72 71 70 70 67 60 54 52 51 51 50 50 48 45 44 42 38 37 38 38 38 39 40 40 39 37 33 30 28 29 32 33 32 30 29 28 28 27 26 25 25 24 23 22 22 17 11 9 8 9 9 10 11 11 11 11 10 10 11 11 11 12 14 15 16 16 18 19 20 22 22 23 23 24 26
80 79 78 78 77 76 76 75 74 74 75 74 72 71 71 67 61 56 54 53 53 53 51 49 47 45 41 37 38 40 41 41 40 37 34 34 33 30 28 28 32 35 36 35 33 32 31 30 29 28 27 27 26 26 25 18 12 9 9 9 10 11 12 12 11 10 9 9 9 10 10 10 12 13 14 15 16 17 19 21 22 23 24 25 26
83 83 82 81 80 79 79 79 78 76 76 76 76 74 73 71 68 63 58 55 55 55 54 53 52 50 45 40 40 43 44 43 40 36 37 39 38 34 31 29 30 34 38 40 38 35 34 33 31 31 30 30 29 29 25 18 12 10 11 11 11 12 13 13 12 10 9 8 9 10 10 11 12 14 15 16 16 17 18 19 19 20 21 23 23
86 86 85 84 83 82 81 81 81 80 78 77 78 78 77 75 73 70 66 61 58 58 58 58 57 56 53 48 46 47 47 47 44 42 43 44 39 35 33 32 32 36 41 44 42 38 36 35 34 33 33 33 32 29 24 18 14 13 13 12 12 13 14 15 14 12 11 11 12 12 12 13 14 15 16 18 18 18 18 20 20 21 21 22 23
88 88 87 87 86 85 84 84 84 84 82 80 79 80 81 79 77 75 72 68 64 62 62 62 62 62 60 57 55 52 48 48 48 46 46 45 39 36 37 37 38 42 45 45 43 41 39 38 36 35 35 36 34 31 26 21 18 16 15 14 13 14 15 16 16 16 15 14 15 16 16 16 16 17 18 20 20 20 20 20 21 22 22 23 23
91 90 90 89 88 87 86 86 86 86 85 84 82 82 83 83 82 80 77 74 71 68 66 66 66 67 65 61 59 54 49 48 49 48 48 45 41 40 42 42 42 44 45 44 44 44 43 41 37 36 37 38 37 34 31 27 23 20 18 16 15 14 15 16 17 17 16 16 17 18 19 19 20 20 21 22 23 23 22 22 22 23 23 23 24
94 93 92 91 91 90 89 88 88 88 88 87 86 85 84 85 85 85 82 78 76 74 72 69 68 68 67 64 62 58 54 52 51 51 52 49 45 45 49 49 47 46 46 46 46 47 46 43 40 38 39 40 40 39 37 34 30 26 22 19 18 17 17 17 17 16 16 17 18 19 20 22 23 24 25 26 26 25 25 24 24 23 23 23 24
97 96 95 94 93 92 91 90 90 89 90 90 89 88 87 86 87 88 87 84 80 78 77 75 71 69 69 68 66 64 60 58 57 56 56 55 52 51 53 53 51 48 48 48 49 50 48 46 43 41 40 41 42 42 41 40 38 34 29 26 22 20 19 20 19 19 19 19 19 20 22 24 25 26 27 28 28 28 27 27 26 24 23 23 24
101 100 98 97 95 94 93 92 92 91 91 92 92 91 90 89 88 89 90 89 86 83 82 80 76 73 71 70 70 69 66 64 63 61 61 60 59 57 57 57 55 51 49 50 52 53 51 49 47 46 45 45 45 43 42 43 43 41 38 34 28 24 22 21 22 23 23 23 23 24 26 28 28 29 28 29 29 29 28 27 27 26 26 26 26
105 104 102 100 98 97 95 94 94 94 93 94 94 94 93 92 91 90 90 91 91 89 86 84 81 78 75 73 73 74 72 69 68 67 64 63 63 62 62 62 61 57 53 53 54 54 53 52 50 48 48 49 49 46 44 44 45 45 44 40 35 30 26 23 24 25 27 28 29 32 35 35 34 32 30 29 29 29 29 28 28 28 29 30 30
109 108 106 105 102 100 98 97 96 96 96 95 95 95 95 95 94 93 92 92 92 92 91 89 86 84 80 77 76 77 76 74 73 71 68 66 66 66 65 65 65 63 59 56 55 54 53 52 50 49 49 51 52 50 48 46 46 47 46 43 40 35 31 28 26 26 29 35 39 43 45 44 41 38 36 34 34 34 34 33 32 32 34 35 36
113 112 110 109 106 104 102 100 99 98 97 97 96 96 97 97 97 96 95 93 93 94 94 93 91 89 86 83 81 80 79 78 77 75 72 70 69 69 68 68 68 67 64 61 59 58 56 53 51 51 51 51 52 53 50 48 46 45 43 42 40 36 33 31 27 28 37 47 51 51 50 49 47 46 44 43 42 42 41 40 39 38 39 40 41
118 116 114 112 110 108 106 104 102 101 100 99 98 98 98 99 99 98 98 96 96 96 96 96 95 93 92 90 87 84 82 81 81 80 77 75 74 73 72 71 71 69 68 67 64 63 61 59 55 53 51 51 53 53 52 50 48 45 42 39 37 35 33 28 26 35 48 54 54 53 53 51 50 50 50 50 50 49 48 47 46 45 45 45 45
121 120 118 116 114 112 110 108 106 104 103 102 101 100 100 100 100 100 100 100 100 99 98 98 97 97 96 95 92 89 86 85 85 84 82 80 78 77 75 74 73 72 72 71 70 67 66 63 60 57 54 52 51 52 51 51 50 49 46 43 39 36 32 26 27 41 55 57 54 55 55 51 48 48 49 51 52 52 53 53 51 50 49 47 45
124 123 122 120 118 116 114 112 110 108 106 105 104 103 102 102 101 101 102 102 103 102 101 100 98 98 98 97 95 93 91 90 88 88 86 84 83 81 79 77 76 75 75 75 74 72 69 67 65 62 59 56 54 53 52 51 51 51 51 49 45 42 38 32 33 46 58 59 56 57 55 51 48 46 45 46 48 49 49 49 49 48 47 44 41
127 125 124 123 121 120 118 116 114 112 110 108 107 106 105 104 103 103 103 104 105 105 104 103 101 99 98 97 96 96 96 94 93 91 90 89 86 84 82 81 80 79 78 79 78 76 74 72 70 67 64 61 60 59 57 56 54 53 52 51 49 48 46 42 42 51 59 59 58 57 54 52 52 51 49 48 49 48 47 47 47 46 45 42 40
129 128 126 125 124 122 121 119 118 116 114 112 110 109 108 107 106 105 105 106 106 106 106 105 103 101 100 98 98 98 99 99 98 96 94 92 90 88 86 85 84 82 82 81 80 79 78 76 75 73 69 66 66 65 63 61 59 57 55 53 52 51 52 50 51 55 58 57 58 59 57 54 53 52 52 54 54 52 48 48 49 49 48 45 41
131 130 128 127 125 124 122 121 119 119 118 116 114 113 112 111 109 109 108 108 107 107 107 107 106 104 103 101 100 100 100 101 102 100 98 96 94 92 90 89 87 86 85 84 83 82 81 80 79 77 75 72 71 69 67 65 64 62 59 57 55 54 54 55 56 57 58 57 59 61 60 57 54 53 54 56 58 55 49 48 50 53 53 48 41
132 130 129 128 127 126 124 122 121 120 120 119 118 116 115 114 113 112 111 110 109 109 108 108 107 107 105 104 104 103 102 102 103 103 102 100 98 96 95 93 91 90 89 88 87 85 84 83 81 80 79 78 76 74 72 70 68 66 63 61 60 59 57 57 57 58 58 58 60 61 60 58 57 56 56 57 58 56 53 52 54 56 55 48 40
130 130 129 129 128 127 126 124 123 122 121 121 120 120 118 117 116 115 114 113 112 111 110 109 108 108 108 107 107 106 105 105 104 104 104 103 102 100 99 97 95 93 92 92 91 89 88 86 85 83 82 81 80 78 76 74 72 70 68 66 65 63 61 60 59 58 58 57 58 59 60 59 58 57 57 57 58 57 56 55 53 53 52 47 42
126 126 127 127 127 127 127 126 125 124 123 122 122 121 121 120 119 118 117 116 115 113 112 110 110 110 110 109 109 109 109 108 106 105 105 105 105 104 103 101 99 98 96 94 94 93 91 90 88 87 85 84 83 81 79 78 76 74 72 71 69 68 66 64 62 61 59 58 58 59 61 61 60 57 56 57 59 60 59 57 54 51 50 48 47
124 124 124 124 125 126 127 126 126 125 125 124 123 122 122 121 121 121 121 120 118 116 114 113 112 112 112 111 111 111 111 110 109 107 106 106 107 107 106 105 103 101 99 98 97 96 95 94 92 90 88 86 85 84 83 81 80 78 77 75 74 73 71 69 67 65 63 61 61 60 61 63 64 63 59 56 56 57 58 58 56 54 53 54 54
120 121 122 123 124 124 125 126 126 126 126 126 125 124 123 123 123 124 123 123 121 119 116 115 115 115 114 113 113 113 113 112 112 110 109 108 107 108 108 108 107 105 103 101 100 99 98 97 96 94 92 90 88 87 85 84 83 82 81 79 79 78 77 74 72 70 68 67 66 64 62 62 65 67 65 62 59 59 61 62 62 61 61 62 62
114 116 118 120 121 123 124 124 125 126 127 127 127 127 126 125 125 125 124 124 123 121 120 119 118 118 117 116 115 115 114 114 114 113 112 110 109 109 109 110 110 109 107 105 103 102 101 100 99 98 96 94 92 90 89 88 87 85 84 84 83 82 81 79 77 75 74 73 72 71 68 65 65 66 67 67 66 67 68 69 70 70 70 68 68
108 110 112 114 116 118 121 122 124 125 126 127 128 128 128 128 127 127 125 125 124 124 124 123 122 121 120 118 117 117 116 116 115 115 114 113 112 111 110 110 111 112 111 110 108 106 104 102 101 100 99 98 96 94 93 91 90 89 88 88 87 86 85 83 82 81 79 79 78 78 77 76 75 74 73 73 72 72 73 73 73 73 73 72 72
103 105 107 109 111 113 115 118 120 122 125 126 128 128 129 129 129 128 128 127 126 126 126 126 126 124 122 121 120 119 118 118 117 116 116 115 114 114 113 112 111 112 113 113 112 110 108 106 105 103 102 101 100 99 97 95 94 94 93 92 91 90 88 87 86 85 84 83 83 83 83 83 83 83 82 81 79 78 78 77 77 77 77 76 76
97 99 101 104 106 108 110 112 115 117 120 123 126 127 129 130 130 130 130 129 128 127 127 127 127 126 125 123 122 121 121 120 119 118 117 117 116 116 115 114 113 113 113 113 113 113 112 111 109 108 107 105 104 103 101 99 98 98 97 96 94 93 91 90 89 89 88 87 87 86 86 85 86 86 86 86 86 85 84 83 83 82 82 82 81
91 93 95 98 100 102 104 107 109 112 115 118 121 124 127 129 130 131 131 130 129 128 128 127 128 128 127 126 125 124 123 122 121 120 119 119 118 117 117 116 115 114 114 114 114 114 113 112 112 111 110 110 109 107 106 105 103 102 101 99 98 96 95 93 93 92 92 91 91 90 89 89 89 89 89 90 90 90 89 88 88 87 87 87 86
Wind_Direction
237 242 244 247 249 240 229 222 218 215 211 205 201 197 195 198 201 204 208 215 219 221 225 232 243 265 297 328 343 350 357 360 3 6 6 4 3 1 0 360 358 357 356 355 354 354 352 351 350 348 347 346 345 344 343 343 342 342 342 344 346 349 352 354 357 359 0 3 7 8 10 15 14 10 5 3 8 10 10 9 2 358 359 2 1
232 232 233 237 244 246 240 233 228 224 219 215 211 206 203 204 203 203 207 212 220 225 227 232 240 253 271 298 318 330 340 346 350 354 357 358 357 356 356 356 356 355 353 352 352 351 350 349 349 348 347 345 344 343 342 341 341 340 340 341 343 346 347 348 350 352 353 355 357 359 5 11 12 7 359 357 4 7 5 3 0 357 354 359 6
230 230 226 224 233 242 244 242 237 232 228 224 221 217 213 214 212 208 210 214 219 225 229 233 240 248 258 273 289 305 321 330 336 342 346 350 350 350 351 351 351 350 349 349 349 348 348 347 346 346 345 344 343 342 342 341 341 340 340 340 341 343 344 346 346 347 349 351 351 352 355 357 358 354 350 353 1 4 5 357 352 352 348 350 3
232 233 224 219 225 227 233 247 247 239 235 231 229 227 223 223 224 218 216 218 220 224 229 234 239 245 252 260 270 283 296 308 319 327 333 338 339 340 342 342 344 344 343 345 345 344 344 345 344 343 342 343 343 343 343 343 343 341 340 340 341 343 344 346 347 348 350 351 350 350 348 345 344 343 346 351 356 1 2 346 340 346 346 341 345
227 226 217 218 223 213 212 235 250 246 241 237 233 233 231 230 230 228 225 224 223 225 229 233 237 243 248 254 261 270 279 288 300 309 316 323 326 328 330 332 334 335 336 338 339 339 340 341 342 341 342 344 345 347 348 347 345 343 342 342 343 345 347 349 351 352 354 354 353 352 350 348 347 349 353 354 346 343 340 334 336 346 350 347 345
227 223 217 222 225 212 209 223 242 252 250 243 237 236 234 234 234 233 231 230 228 228 229 231 234 238 244 250 256 262 269 275 284 292 299 305 309 313 316 319 322 324 327 331 333 334 335 339 340 339 341 346 350 353 354 352 350 349 349 350 350 353 355 355 355 357 358 358 357 356 354 353 355 357 358 355 347 340 336 338 347 358 2 1 359
230 229 226 226 225 218 214 219 238 260 263 252 243 239 236 235 235 235 235 235 234 232 232 233 233 236 240 246 251 257 263 268 273 279 285 291 295 299 303 307 310 314 316 322 326 327 330 336 338 338 343 350 355 357 358 356 356 358 360 1 3 4 6 6 7 8 7 6 5 5 3 0 0 0 360 358 355 355 357 0 9 17 19 18 16
230 231 229 226 223 217 210 210 232 261 270 264 253 246 241 237 235 235 236 237 238 237 237 236 236 236 240 244 249 255 260 263 267 271 276 281 286 290 294 298 301 305 308 313 317 319 323 331 335 337 344 354 360 3 4 4 4 5 8 12 13 13 15 17 19 18 17 17 18 19 17 14 11 7 3 3 4 7 12 17 22 27 30 30 29
231 231 223 218 221 220 214 211 220 239 255 259 256 252 247 243 240 237 237 237 238 239 239 240 239 240 242 245 249 253 257 261 263 265 269 273 278 283 288 293 296 300 303 307 310 313 318 326 331 336 344 355 2 7 10 11 10 10 13 16 18 18 21 22 23 23 24 24 25 26 26 24 22 20 16 13 12 13 16 21 25 27 28 30 31
228 229 219 214 218 218 213 207 208 215 225 232 238 244 246 245 243 241 239 238 238 239 240 241 242 243 245 247 250 253 255 258 259 261 265 269 273 277 282 287 292 295 299 303 308 311 315 322 329 336 346 358 7 11 14 15 15 15 16 20 22 24 24 24 24 24 24 26 27 28 27 27 27 26 25 21 17 16 18 19 20 21 24 28 31
222 226 222 218 217 216 213 208 209 214 217 219 224 229 232 235 237 238 238 238 239 240 242 243 245 246 247 248 250 253 254 255 255 257 260 265 269 273 277 281 285 289 294 298 304 308 311 317 326 333 344 359 11 17 19 19 19 19 20 23 28 31 29 27 26 25 23 24 26 28 28 27 27 27 27 24 21 19 19 18 18 20 24 29 33
218 222 224 223 220 217 214 211 214 221 222 222 225 225 223 224 226 229 232 235 237 239 241 243 245 247 249 250 251 252 254 255 255 253 255 260 267 270 273 275 279 283 288 293 298 303 307 312 319 327 337 352 6 18 22 21 22 23 22 25 33 37 34 29 26 24 23 22 23 25 26 27 27 27 26 25 24 22 21 20 18 19 23 28 32
216 218 222 225 224 221 218 216 218 223 225 225 227 228 227 225 225 227 230 235 238 239 239 240 242 245 247 249 250 252 254 256 255 252 251 256 263 268 271 272 275 278 283 288 292 296 301 306 312 319 325 336 350 7 21 20 20 24 23 26 35 39 36 31 26 23 21 20 20 21 23 23 24 25 24 24 25 26 26 23 20 20 24 27 32
213 213 218 222 223 224 224 223 222 225 227 226 225 228 229 229 230 231 232 235 240 241 241 240 241 243 245 247 249 251 253 256 257 256 252 252 259 266 269 270 272 275 278 282 286 291 295 299 305 310 314 323 333 345 7 14 13 19 22 26 37 42 38 32 26 21 18 17 16 16 17 17 18 20 21 22 24 25 29 29 24 23 30 36 41
215 213 217 222 223 224 224 223 224 226 228 229 228 228 229 228 229 231 231 233 238 239 239 241 244 246 248 250 253 255 256 258 260 261 258 252 255 262 267 268 269 270 272 276 280 284 288 291 296 301 305 314 319 322 339 358 355 359 8 16 34 46 42 35 29 21 12 9 9 10 11 11 10 12 15 17 19 22 29 34 34 32 38 47 54
222 218 219 222 224 224 222 222 226 229 229 229 229 230 231 229 229 231 232 233 237 237 236 238 242 246 249 250 253 258 260 261 263 264 262 257 253 258 263 267 268 267 266 268 272 276 280 284 289 292 299 307 309 308 315 327 328 327 332 340 8 39 38 32 29 23 12 4 359 359 1 1 358 359 4 7 11 16 23 32 40 44 48 53 59
225 222 221 222 224 224 221 220 225 229 228 229 229 229 232 233 232 234 234 235 238 240 239 235 234 238 244 247 252 259 262 263 263 263 262 258 253 255 260 264 266 266 263 261 263 268 271 275 281 286 293 301 301 299 301 304 302 299 299 297 293 309 3 6 8 10 8 2 354 349 347 348 346 346 349 354 356 0 5 16 36 51 57 58 61
225 224 224 225 225 225 223 222 225 226 225 225 226 227 231 234 234 235 235 236 238 241 242 240 234 234 239 246 253 260 263 264 264 261 259 257 253 253 256 261 264 264 262 259 258 261 263 266 273 279 285 292 293 292 292 292 289 282 279 279 275 269 276 296 318 330 336 342 346 343 338 334 332 333 336 338 339 344 345 341 352 44 43 48 68
226 224 225 227 227 226 226 225 226 227 226 225 225 227 230 232 233 234 235 236 237 239 242 242 238 234 234 238 246 253 259 265 265 261 259 257 255 254 255 258 261 262 260 257 256 257 258 260 265 270 275 280 284 285 287 287 283 273 266 267 270 272 277 282 290 299 306 311 318 324 325 323 320 319 323 324 322 327 331 322 299 272 249 219 162
226 225 225 226 227 227 227 226 226 227 226 225 227 229 229 230 232 233 234 236 237 237 238 238 237 234 231 232 235 243 255 267 270 268 265 259 256 255 256 257 258 259 257 255 254 255 256 258 261 264 267 271 274 278 283 284 280 269 258 262 268 275 282 287 290 294 298 299 300 302 302 304 306 305 307 308 306 309 314 307 284 258 235 224 217
227 227 226 226 226 227 227 226 226 227 226 226 228 231 230 230 231 232 234 236 237 236 235 236 237 235 231 229 231 235 240 246 254 263 267 264 259 255 254 256 257 257 256 253 252 253 255 256 258 261 263 265 268 272 278 280 277 262 247 257 271 281 288 294 297 297 299 298 295 294 292 290 291 291 290 291 293 296 299 295 282 262 242 235 237
227 227 227 226 226 226 227 227 227 227 227 226 229 231 231 231 232 233 234 235 236 236 235 235 237 236 232 230 231 231 230 228 228 235 245 252 255 254 254 256 258 257 256 252 250 251 254 254 255 257 260 262 265 270 273 272 267 248 233 249 269 283 290 296 300 301 303 302 298 295 292 287 284 283 281 280 282 283 282 282 280 270 254 250 263
229 227 227 227 227 227 227 227 227 227 227 227 229 231 232 231 232 235 236 235 235 236 234 232 233 233 232 231 230 227 226 227 226 226 230 236 242 248 254 260 262 260 257 253 249 248 249 251 252 254 256 259 263 268 269 265 252 230 224 244 263 278 287 294 299 303 305 305 303 300 296 291 287 286 283 280 278 276 274 273 273 271 268 272 283
230 229 228 228 228 228 228 227 227 226 226 227 229 230 231 230 230 231 234 234 234 233 232 229 228 229 230 233 230 225 225 227 226 226 230 234 237 240 249 259 264 263 258 253 247 244 244 246 248 250 253 257 261 266 265 258 240 222 229 247 260 270 281 289 295 302 305 306 305 304 302 299 296 294 292 288 284 282 280 278 277 275 274 277 283
231 230 229 228 228 228 228 228 227 226 225 226 228 230 230 230 229 228 230 232 232 231 230 228 227 228 230 233 234 233 231 230 228 229 235 239 239 236 235 245 256 261 260 255 247 241 240 242 244 247 250 254 257 260 260 252 239 232 240 251 260 268 277 285 290 297 305 306 306 308 313 313 310 307 305 299 295 292 289 287 285 284 284 284 285
231 231 230 229 228 228 228 229 228 227 226 225 227 229 230 231 230 228 227 229 230 229 229 227 227 228 230 234 238 240 238 233 228 229 232 233 233 230 227 231 242 252 256 255 248 241 238 240 242 244 247 250 252 255 256 254 249 249 250 253 262 270 276 281 285 291 299 303 304 308 314 317 316 315 313 308 306 305 303 301 299 299 299 300 300
232 231 231 230 229 228 228 228 229 228 227 225 225 228 230 231 231 229 227 227 228 229 228 227 227 229 232 237 241 243 240 233 228 227 227 226 227 228 228 228 232 237 243 247 247 243 238 237 239 242 246 249 250 250 253 256 257 257 257 260 265 270 274 279 285 292 299 303 304 305 306 306 304 303 303 301 301 302 303 304 306 307 309 310 311
232 232 231 231 230 229 228 228 228 229 228 226 225 226 228 229 231 231 228 226 227 229 228 228 228 229 233 238 241 240 237 231 226 225 224 223 227 232 232 231 232 232 234 239 242 242 238 236 236 239 243 248 250 250 250 253 256 259 261 264 269 272 275 279 284 289 295 299 301 301 299 298 295 292 290 289 290 291 292 294 298 301 305 308 311
233 233 232 231 231 230 229 228 228 229 229 227 225 225 227 228 229 231 230 227 226 227 228 229 229 230 233 238 240 237 233 228 224 222 222 224 231 236 233 231 232 232 232 236 239 240 239 237 235 235 239 244 248 249 249 250 252 255 258 263 269 273 277 281 283 286 291 293 295 296 297 296 294 292 289 287 286 286 288 289 292 296 300 304 308
234 234 233 232 231 231 230 229 228 228 229 229 227 226 226 227 228 230 231 229 226 226 228 229 230 231 232 235 236 235 232 228 225 222 221 225 232 234 231 231 232 231 231 234 238 239 241 240 238 237 239 243 246 248 248 249 249 250 252 257 262 268 274 277 281 285 289 291 294 295 295 294 293 293 293 292 289 288 287 287 288 291 295 300 305
235 235 234 233 232 231 231 230 229 229 229 229 229 227 226 226 227 228 230 230 227 226 227 229 230 230 231 232 233 233 231 229 227 224 223 225 229 229 228 231 233 230 228 231 234 237 240 241 242 241 240 242 245 247 247 248 248 249 249 250 254 259 265 271 276 282 287 291 293 292 290 291 292 294 294 292 289 286 285 285 287 289 292 294 297
236 236 235 234 233 232 231 231 230 230 229 229 229 229 228 227 227 227 229 230 229 227 227 228 230 230 229 229 230 232 231 229 227 226 225 226 228 228 229 230 231 230 230 232 234 236 238 240 243 244 242 242 244 247 247 248 248 249 249 249 249 251 257 265 273 279 283 288 291 291 289 288 287 286 285 284 283 283 284 287 290 293 293 293 293
237 237 236 235 234 233 232 231 231 231 230 229 229 229 229 229 228 227 228 229 230 229 228 228 229 230 229 228 229 230 231 231 229 228 227 227 227 229 232 232 231 231 233 234 235 236 237 238 241 244 244 244 245 247 248 248 248 249 250 251 250 249 250 258 269 280 287 290 290 286 282 277 274 275 278 280 283 286 289 292 296 298 298 298 299
238 238 237 237 236 234 233 232 231 231 231 230 230 230 230 230 229 229 228 229 230 230 229 228 228 229 229 229 228 229 230 231 231 230 229 228 227 228 231 234 233 233 234 235 234 234 236 238 241 244 244 245 246 247 249 249 248 248 249 251 252 250 249 252 262 275 280 277 272 270 270 270 272 277 281 283 285 287 289 291 294 297 298 299 301
238 238 238 237 237 236 234 233 232 231 231 231 231 230 230 230 230 230 229 229 229 230 231 230 228 228 229 229 229 229 229 230 231 231 230 229 228 227 229 232 235 235 236 236 235 235 236 238 243 245 246 245 245 245 248 250 249 248 248 250 251 250 247 248 253 261 265 265 265 266 267 270 274 278 280 281 282 284 286 287 289 291 292 294 298
239 239 238 238 237 237 236 235 233 232 232 231 231 231 230 230 230 230 230 230 230 230 231 231 230 228 229 230 230 229 229 230 231 231 230 230 229 229 229 231 233 235 236 237 237 237 238 240 242 245 246 245 244 244 246 249 249 248 247 248 248 245 243 243 247 254 258 262 265 267 268 270 274 278 280 282 283 282 281 282 284 287 288 291 294
240 239 239 239 238 237 237 236 235 234 232 232 231 231 231 231 230 230 231 231 231 231 231 231 232 230 229 229 230 230 230 230 230 231 230 230 230 230 231 231 233 234 236 237 238 238 240 241 242 243 244 244 243 244 246 248 249 247 246 245 244 242 239 237 244 255 260 262 263 264 266 269 274 278 281 283 284 283 282 281 281 284 287 291 292
241 240 240 239 239 238 237 237 236 235 234 233 232 231 231 231 230 230 230 231 231 232 231 231 232 232 231 230 230 229 230 230 230 231 231 231 231 231 232 233 234 235 235 237 238 238 240 241 242 242 243 242 242 243 245 247 248 246 244 244 244 242 239 237 241 251 258 261 260 260 262 264 265 266 267 270 275 278 281 282 283 285 289 293 295
242 242 241 240 239 239 238 237 237 236 235 234 233 232 232 231 231 231 231 231 231 232 232 232 232 232 233 232 231 230 230 230 231 231 231 232 232 232 232 233 235 236 236 237 237 238 240 241 242 242 242 242 242 243 245 246 246 246 245 245 244 242 240 240 242 247 254 258 260 260 261 262 262 262 262 263 266 270 275 281 285 286 289 292 293
242 242 242 242 241 240 239 238 237 237 236 235 234 233 233 232 231 231 231 231 231 231 232 233 233 232 233 233 232 231 231 231 231 232 232 232 232 232 232 233 235 237 238 238 238 238 240 241 242 242 242 242 243 243 244 244 245 245 245 245 244 243 243 243 243 245 250 254 257 258 259 260 263 266 267 267 267 269 274 280 283 284 286 289 292
242 242 242 242 242 241 240 239 238 237 237 236 235 234 233 233 232 231 231 231 231 231 232 232 233 233 233 233 233 233 232 232 232 232 232 232 232 232 233 233 235 236 238 239 239 239 240 241 242 243 243 243 243 243 243 244 244 245 245 245 245 245 245 245 244 244 246 249 252 254 255 257 261 266 268 267 267 268 270 273 275 277 281 285 292
243 242 242 242 242 242 241 240 239 238 237 236 236 235 234 233 233 232 231 231 231 231 231 232 232 233 233 233 233 233 233 233 233 232 232 232 233 233 233 233 234 236 238 239 240 240 241 241 242 243 244 244 244 244 244 244 244 244 245 245 245 245 245 245 245 244 244 246 250 253 254 256 259 262 264 265 265 266 268 269 272 275 278 282 286
242 242 242 242 242 242 242 242 241 240 238 237 236 235 234 234 234 233 233 232 231 231 231 231 232 232 233 233 233 233 234 234 234 233 233 233 233 233 233 234 234 235 237 238 240 241 241 242 242 243 244 245 246 246 246 246 246 245 245 245 246 246 246 245 245 245 245 247 250 253 255 258 261 263 263 264 265 265 266 268 271 273 274 275 275
242 242 242 242 242 242 242 242 242 241 240 239 238 237 235 234 234 234 233 233 232 231 231 231 231 232 232 233 233 234 234 234 234 234 234 233 233 234 234 235 235 235 236 237 239 240 241 242 242 243 244 245 246 247 248 248 248 247 247 247 247 247 247 246 246 247 248 248 250 252 255 258 261 262 262 263 263 263 263 265 267 268 268 268 269
243 242 242 242 242 242 242 242 241 241 241 240 239 238 237 236 235 234 234 233 233 231 230 230 231 231 232 232 233 233 234 234 234 234 234 234 234 234 235 235 236 236 236 237 238 239 241 242 243 243 243 244 245 247 248 249 249 249 249 249 249 249 249 248 247 248 249 250 251 253 253 254 256 257 256 257 259 261 262 264 266 266 267 269 271
243 243 242 242 242 241 241 241 241 241 241 240 240 239 238 237 236 234 234 233 233 232 231 231 231 231 231 232 232 233 234 234 235 235 235 235 235 235 235 236 236 237 237 238 238 239 240 241 243 243 243 243 244 245 246 248 249 250 250 250 250 250 250 250 248 248 248 248 250 251 252 252 254 255 255 256 259 262 264 265 266 267 269 270 271
243 243 242 242 242 241 240 240 240 240 240 240 240 239 239 238 237 236 234 233 233 233 232 232 231 231 231 231 231 232 233 234 235 235 235 235 235 235 235 236 236 237 238 239 239 239 240 241 242 244 244 244 244 244 245 246 248 249 250 251 251 251 251 251 251 250 249 248 249 250 250 250 251 253 254 256 258 260 262 264 266 268 269 270 269
243 243 242 242 241 241 240 240 239 239 239 239 239 239 239 238 237 236 235 234 233 232 232 232 231 231 230 230 231 231 232 233 234 235 235 235 235 236 236 236 236 237 238 239 240 240 241 241 242 244 245 245 245 245 245 246 246 248 248 250 251 252 252 252 252 252 251 251 251 251 252 252 252 253 255 257 258 260 261 262 264 265 267 268 268
243 243 243 242 241 241 240 240 239 239 238 238 238 238 238 238 237 237 236 234 233 232 232 232 232 231 230 230 230 231 231 232 233 234 235 236 236 236 236 236 237 237 238 238 239 240 241 242 243 243 245 245 246 246 247 247 247 247 248 248 249 251 252 253 253 254 254 254 253 253 254 254 255 256 257 259 260 261 261 262 263 264 266 267 268
244 243 243 242 242 241 240 240 239 239 238 238 237 237 237 237 237 237 236 235 234 233 232 232 232 232 231 230 230 230 231 231 232 233 234 235 236 237 237 237 237 237 238 238 239 240 241 242 243 244 245 246 246 247 248 248 248 248 248 248 249 250 251 252 253 254 255 255 255 255 256 256 256 257 259 260 261 262 263 263 264 265 266 267 268
243 243 243 243 242 242 241 240 240 239 239 238 238 237 237 237 237 236 236 235 235 234 232 232 231 231 231 231 230 230 230 230 231 232 233 234 235 236 237 237 237 238 238 239 240 240 241 242 243 244 245 246 247 247 248 248 249 249 250 250 250 250 250 251 252 253 254 255 256 257 257 258 258 259 260 261 262 263 264 265 265 266 266 267 268
Height
11015 11017 11019 11020 11021 11023 11024 11025 11026 11028 11029 11031 11032 11033 11034 11035 11036 11037 11038 11039 11039 11040 11040 11040 11041 11041 11040 11040 11039 11039 11039 11038 11038 11037 11036 11035 11034 11033 11033 11032 11031 11030 11029 11028 11027 11026 11025 11024 11023 11022 11021 11020 11019 11018 11017 11016 11015 11014 11013 11012 11011 11011 11010 11009 11008 11008 11007 11006 11005 11004 11003 11002 11001 11000 10999 10998 10997 10996 10995 10994 10993 10992 10992 10991 10989
11012 11013 11014 11016 11018 11020 11022 11024 11025 11027 11028 11030 11031 11032 11033 11033 11034 11035 11036 11037 11038 11038 11039 11039 11040 11040 11039 11039 11039 11039 11038 11038 11037 11037 11036 11035 11034 11034 11033 11032 11032 11031 11030 11029 11028 11027 11026 11025 11024 11023 11022 11021 11020 11019 11017 11016 11015 11014 11013 11012 11011 11010 11010 11009 11008 11007 11007 11006 11005 11003 11002 11002 11001 11000 10999 10998 10997 10996 10994 10993 10993 10992 10991 10990 10989
11012 11011 11010 11011 11014 11017 11019 11021 11023 11025 11027 11029 11030 11031 11032 11032 11033 11034 11035 11036 11036 11037 11038 11038 11038 11038 11038 11038 11038 11038 11038 11038 11037 11036 11036 11035 11034 11034 11033 11032 11032 11031 11030 11029 11028 11027 11026 11025 11024 11023 11022 11021 11020 11019 11018 11016 11015 11014 11013 11012 11011 11010 11009 11009 11008 11007 11006 11005 11004 11003 11002 11001 11001 11000 10999 10998 10997 10995 10994 10993 10992 10991 10990 10989 10989
11011 11010 11008 11008 11010 11012 11015 11018 11020 11023 11025 11027 11029 11030 11031 11031 11032 11033 11033 11034 11035 11035 11036 11036 11037 11037 11037 11037 11037 11037 11037 11036 11036 11036 11035 11035 11034 11033 11033 11032 11032 11031 11030 11030 11028 11027 11026 11025 11024 11023 11022 11021 11020 11019 11018 11016 11015 11014 11013 11012 11011 11010 11009 11008 11008 11007 11006 11005 11004 11003 11002 11001 11000 10999 10998 10997 10996 10995 10994 10993 10992 10991 10990 10989 10988
11010 11010 11008 11007 11007 11008 11010 11014 11017 11020 11023 11025 11027 11028 11029 11029 11030 11031 11031 11032 11032 11033 11034 11034 11035 11035 11035 11035 11035 11035 11035 11035 11035 11035 11034 11034 11033 11032 11032 11031 11031 11030 11030 11029 11028 11027 11026 11025 11024 11023 11022 11021 11020 11019 11018 11016 11015 11014 11013 11012 11011 11010 11009 11008 11008 11007 11006 11004 11003 11002 11001 11000 10999 10998 10997 10996 10995 10995 10993 10992 10991 10990 10989 10988 10987
11009 11010 11009 11008 11008 11007 11007 11009 11013 11017 11021 11023 11025 11026 11026 11027 11028 11029 11029 11030 11030 11031 11032 11032 11033 11033 11033 11033 11033 11033 11033 11033 11034 11033 11033 11033 11032 11031 11031 11030 11030 11029 11029 11028 11028 11027 11026 11025 11024 11023 11022 11021 11020 11019 11018 11017 11016 11014 11013 11012 11011 11010 11009 11009 11008 11007 11005 11004 11002 11002 11001 11000 10999 10998 10997 10996 10995 10994 10993 10992 10991 10990 10989 10988 10986
11008 11008 11008 11008 11008 11008 11008 11007 11011 11016 11020 11022 11023 11023 11023 11024 11025 11026 11026 11027 11028 11029 11029 11030 11030 11031 11031 11031 11031 11032 11032 11032 11032 11032 11032 11031 11031 11030 11030 11029 11029 11028 11028 11027 11027 11026 11025 11025 11024 11023 11022 11022 11020 11020 11018 11017 11016 11015 11014 11013 11012 11011 11010 11009 11008 11007 11006 11004 11003 11002 11001 11000 10999 10998 10997 10995 10994 10993 10992 10991 10990 10989 10988 10987 10986
11004 11004 11005 11006 11008 11010 11010 11009 11012 11018 11021 11022 11022 11021 11021 11021 11022 11023 11023 11024 11025 11026 11027 11027 11028 11028 11028 11029 11030 11030 11031 11031 11031 11031 11031 11030 11030 11029 11029 11028 11028 11028 11027 11027 11026 11025 11025 11024 11024 11023 11022 11022 11021 11020 11019 11018 11016 11015 11014 11013 11012 11012 11011 11010 11009 11008 11006 11005 11004 11003 11002 11001 11000 10998 10997 10995 10994 10993 10992 10991 10990 10989 10988 10987 10986
10998 10999 11002 11005 11007 11010 11011 11010 11011 11016 11020 11021 11018 11017 11018 11018 11019 11019 11020 11021 11022 11023 11024 11025 11025 11026 11027 11027 11028 11029 11029 11030 11030 11030 11030 11029 11029 11028 11028 11028 11028 11028 11027 11027 11026 11026 11025 11025 11024 11023 11023 11022 11021 11020 11019 11018 11017 11016 11015 11014 11013 11012 11011 11010 11009 11008 11007 11006 11004 11003 11002 11001 11000 10999 10997 10996 10994 10993 10992 10991 10990 10989 10988 10987 10986
10992 10993 10997 11000 11002 11004 11006 11005 11003 11004 11008 11009 11009 11010 11012 11013 11014 11015 11016 11018 11019 11020 11021 11022 11023 11024 11025 11026 11026 11027 11028 11028 11028 11029 11029 11028 11028 11028 11028 11028 11028 11028 11028 11027 11027 11026 11026 11025 11025 11024 11023 11023 11022 11021 11020 11019 11018 11017 11016 11015 11014 11013 11012 11011 11010 11009 11008 11007 11005 11004 11003 11002 11001 11000 10998 10997 10995 10994 10993 10992 10991 10990 10989 10988 10987
10988 10989 10990 10993 10996 10998 10999 11000 10998 10995 10995 10996 10997 11000 11002 11003 11005 11008 11011 11014 11016 11018 11019 11020 11021 11022 11023 11024 11025 11025 11025 11026 11027 11028 11028 11027 11027 11027 11027 11027 11027 11027 11028 11028 11028 11027 11027 11026 11026 11025 11024 11024 11023 11022 11022 11021 11020 11018 11017 11016 11015 11014 11013 11012 11011 11010 11009 11008 11007 11006 11005 11004 11002 11001 11000 10999 10997 10996 10995 10994 10993 10991 10990 10989 10989
10984 10984 10985 10987 10991 10994 10995 10996 10996 10994 10993 10994 10994 10993 10993 10993 10994 10998 11004 11008 11011 11014 11016 11018 11019 11020 11021 11022 11023 11023 11023 11024 11025 11026 11027 11027 11026 11026 11026 11026 11026 11027 11027 11028 11028 11028 11027 11027 11027 11026 11025 11025 11024 11023 11023 11022 11021 11020 11019 11018 11017 11016 11015 11014 11013 11012 11010 11009 11008 11008 11007 11006 11005 11003 11002 11001 11000 10998 10997 10996 10995 10994 10993 10992 10991
10979 10979 10980 10982 10987 10990 10992 10993 10994 10992 10992 10993 10992 10991 10990 10990 10992 10995 11000 11003 11006 11009 11011 11014 11016 11017 11019 11020 11020 11021 11022 11022 11023 11024 11026 11026 11026 11026 11026 11025 11026 11026 11027 11028 11028 11028 11028 11028 11027 11027 11026 11025 11025 11024 11024 11022 11021 11021 11019 11019 11018 11017 11016 11015 11014 11013 11012 11011 11010 11009 11008 11008 11007 11006 11005 11003 11002 11001 10999 10998 10997 10996 10995 10994 10994
10975 10976 10978 10980 10984 10989 10990 10989 10989 10989 10989 10990 10989 10988 10989 10992 10994 10997 10998 11000 11003 11006 11007 11010 11012 11014 11015 11017 11018 11019 11020 11020 11021 11023 11025 11026 11025 11025 11025 11025 11025 11026 11026 11027 11028 11028 11028 11028 11028 11027 11027 11026 11025 11025 11024 11023 11022 11021 11020 11019 11019 11018 11017 11016 11015 11014 11013 11013 11012 11011 11010 11009 11008 11008 11007 11006 11005 11003 11002 11001 11000 10999 10998 10997 10996
10972 10974 10975 10977 10980 10983 10984 10984 10985 10986 10987 10988 10988 10988 10988 10991 10993 10995 10997 10999 11001 11004 11005 11007 11009 11011 11013 11015 11016 11017 11018 11019 11020 11021 11023 11025 11025 11024 11023 11023 11024 11024 11025 11026 11027 11027 11028 11028 11028 11028 11027 11027 11026 11025 11025 11024 11023 11022 11021 11020 11019 11018 11018 11017 11016 11015 11014 11014 11013 11012 11012 11011 11010 11010 11009 11008 11007 11006 11005 11003 11002 11002 11001 11000 10999
10967 10969 10971 10972 10974 10976 10979 10981 10981 10982 10984 10985 10986 10987 10988 10989 10991 10993 10996 10998 11000 11002 11004 11005 11008 11010 11011 11012 11013 11014 11016 11018 11019 11020 11021 11023 11024 11023 11022 11022 11022 11023 11024 11025 11025 11026 11026 11026 11027 11027 11027 11027 11026 11025 11025 11024 11023 11022 11021 11020 11019 11019 11018 11018 11017 11016 11016 11015 11014 11014 11013 11013 11012 11011 11011 11010 11009 11008 11007 11006 11005 11004 11003 11002 11002
10960 10963 10965 10966 10968 10970 10973 10974 10973 10975 10978 10981 10983 10985 10986 10987 10989 10991 10994 10997 10999 11000 11001 11003 11005 11007 11008 11010 11011 11013 11015 11016 11017 11018 11019 11021 11022 11022 11021 11021 11021 11021 11022 11024 11024 11024 11024 11025 11025 11026 11026 11027 11026 11025 11024 11024 11023 11022 11021 11020 11019 11019 11018 11018 11017 11017 11016 11016 11015 11014 11014 11014 11013 11012 11012 11011 11010 11009 11009 11008 11007 11006 11005 11005 11004
10953 10956 10958 10960 10962 10964 10967 10968 10968 10970 10974 10976 10979 10981 10982 10984 10986 10989 10991 10993 10995 10997 10999 11001 11002 11003 11006 11008 11010 11012 11013 11014 11015 11016 11017 11019 11020 11020 11020 11020 11020 11020 11021 11023 11023 11023 11023 11023 11023 11023 11024 11025 11024 11024 11023 11023 11023 11022 11021 11020 11019 11018 11018 11017 11017 11017 11016 11016 11016 11015 11014 11014 11013 11013 11012 11012 11011 11010 11010 11009 11008 11007 11007 11006 11005
10945 10948 10951 10953 10955 10957 10960 10963 10965 10967 10971 10973 10975 10976 10977 10980 10983 10985 10987 10988 10991 10993 10996 10998 10999 11000 11002 11004 11007 11009 11011 11012 11014 11015 11016 11018 11018 11018 11019 11019 11018 11019 11020 11021 11022 11022 11021 11021 11021 11021 11022 11022 11022 11021 11021 11021 11021 11021 11020 11019 11018 11017 11017 11017 11016 11016 11016 11016 11016 11015 11015 11014 11013 11013 11012 11012 11012 11011 11011 11010 11009 11008 11007 11007 11006
10937 10940 10943 10946 10948 10950 10954 10957 10960 10963 10966 10969 10970 10972 10974 10976 10978 10981 10982 10984 10986 10989 10992 10994 10995 10997 10998 11000 11002 11005 11007 11009 11012 11014 11016 11016 11017 11017 11017 11017 11017 11017 11019 11020 11020 11020 11020 11020 11020 11020 11020 11019 11019 11019 11019 11019 11020 11020 11019 11018 11017 11016 11016 11015 11015 11015 11015 11015 11015 11014 11014 11013 11013 11013 11012 11012 11011 11011 11010 11009 11009 11008 11007 11007 11006
10929 10932 10936 10938 10941 10943 10946 10950 10954 10957 10960 10963 10965 10967 10970 10971 10973 10976 10977 10979 10982 10984 10987 10989 10991 10992 10994 10995 10995 10996 10997 11001 11006 11011 11015 11016 11016 11015 11015 11015 11015 11016 11017 11018 11018 11018 11018 11019 11019 11018 11018 11017 11016 11016 11016 11016 11017 11018 11018 11016 11016 11015 11014 11014 11014 11013 11013 11013 11013 11013 11012 11012 11012 11011 11011 11011 11010 11010 11010 11009 11008 11007 11007 11006 11006
10920 10924 10928 10931 10933 10936 10939 10943 10947 10950 10953 10956 10958 10961 10964 10966 10968 10970 10972 10974 10977 10979 10981 10984 10986 10987 10989 10989 10989 10988 10987 10989 10992 10998 11004 11009 11011 11013 11013 11013 11014 11015 11016 11017 11017 11017 11017 11017 11017 11016 11016 11015 11015 11014 11014 11014 11015 11015 11016 11015 11015 11014 11013 11012 11012 11012 11011 11011 11011 11011 11011 11010 11010 11010 11009 11009 11009 11008 11008 11008 11007 11006 11005 11005 11004
10911 10915 10919 10923 10926 10928 10931 10935 10939 10943 10946 10949 10951 10953 10957 10960 10963 10965 10967 10970 10971 10973 10976 10979 10981 10982 10983 10985 10985 10985 10984 10985 10985 10987 10991 10997 11003 11007 11010 11013 11014 11015 11015 11015 11015 11014 11014 11014 11015 11014 11014 11013 11013 11013 11012 11012 11013 11013 11014 11014 11014 11013 11012 11011 11011 11010 11010 11009 11009 11009 11009 11008 11008 11007 11007 11007 11007 11006 11006 11005 11005 11004 11003 11002 11002
10901 10906 10910 10914 10917 10920 10923 10927 10931 10935 10938 10941 10943 10946 10949 10953 10957 10960 10962 10964 10965 10967 10971 10974 10975 10976 10979 10981 10982 10982 10983 10983 10984 10987 10992 10997 11000 11003 11007 11012 11015 11015 11014 11013 11012 11011 11011 11011 11011 11011 11011 11011 11012 11011 11011 11011 11011 11012 11012 11012 11012 11012 11011 11010 11010 11009 11008 11008 11008 11007 11007 11007 11006 11006 11005 11005 11005 11004 11003 11003 11002 11001 11001 11000 10999
10891 10895 10899 10902 10907 10912 10915 10918 10922 10926 10930 10933 10935 10938 10941 10945 10949 10952 10955 10957 10959 10962 10965 10968 10970 10971 10972 10974 10975 10977 10979 10980 10984 10991 10996 10998 10998 10999 11002 11007 11012 11014 11012 11010 11008 11007 11007 11007 11007 11007 11008 11008 11008 11008 11008 11009 11010 11011 11011 11011 11010 11010 11010 11010 11009 11008 11007 11007 11006 11005 11005 11005 11005 11004 11004 11003 11003 11002 11001 11000 10999 10998 10997 10996 10995
10879 10883 10886 10891 10897 10902 10905 10908 10913 10917 10921 10924 10928 10930 10933 10936 10940 10944 10948 10950 10952 10955 10958 10960 10962 10962 10964 10967 10969 10972 10974 10978 10983 10988 10988 10986 10988 10991 10993 10997 11003 11008 11009 11006 11004 11004 11004 11004 11005 11004 11004 11004 11004 11004 11005 11007 11009 11009 11009 11009 11008 11008 11008 11008 11008 11007 11006 11005 11005 11004 11003 11003 11003 11002 11002 11001 11001 11000 10999 10998 10996 10995 10994 10992 10991
10867 10871 10875 10880 10886 10890 10894 10898 10902 10906 10910 10915 10919 10922 10924 10927 10931 10935 10939 10942 10945 10948 10950 10952 10953 10954 10957 10960 10963 10965 10968 10971 10975 10976 10975 10976 10981 10984 10984 10984 10989 10994 10995 10995 10996 10998 10999 10999 11000 11000 11000 11000 11000 11001 11002 11004 11006 11007 11007 11007 11006 11006 11006 11006 11006 11006 11005 11004 11003 11002 11001 11001 11000 11000 10999 10999 10998 10998 10997 10995 10994 10993 10992 10991 10989
10856 10860 10864 10869 10873 10878 10883 10887 10891 10895 10900 10905 10910 10912 10914 10918 10921 10925 10929 10934 10937 10939 10942 10944 10945 10947 10950 10952 10954 10957 10959 10963 10965 10967 10969 10973 10976 10976 10975 10974 10975 10977 10979 10983 10987 10991 10992 10993 10995 10996 10996 10996 10997 10999 11000 11001 11003 11004 11004 11005 11004 11004 11004 11004 11004 11003 11002 11001 11000 10999 10999 10998 10998 10997 10997 10996 10996 10995 10995 10994 10993 10992 10991 10990 10988
10844 10848 10852 10857 10861 10867 10872 10876 10880 10885 10889 10894 10898 10901 10904 10908 10911 10914 10919 10924 10928 10930 10932 10935 10937 10940 10942 10944 10946 10949 10951 10954 10957 10960 10964 10967 10968 10966 10966 10967 10967 10970 10973 10977 10981 10984 10985 10987 10990 10991 10991 10992 10993 10995 10997 10998 11000 11001 11001 11002 11002 11002 11002 11002 11002 11001 11000 10999 10997 10996 10995 10994 10994 10994 10994 10993 10993 10993 10993 10993 10992 10991 10990 10989 10987
10831 10835 10840 10844 10849 10854 10860 10865 10870 10875 10879 10882 10887 10891 10894 10898 10901 10904 10908 10913 10918 10921 10923 10926 10929 10932 10935 10936 10938 10941 10944 10947 10950 10953 10956 10958 10957 10957 10958 10960 10962 10965 10969 10973 10976 10978 10980 10982 10985 10986 10987 10988 10989 10990 10992 10995 10996 10997 10998 10999 10999 10999 10999 11000 11000 10999 10998 10996 10994 10992 10991 10990 10990 10990 10990 10990 10990 10991 10990 10990 10990 10989 10988 10988 10986
10819 10823 10827 10832 10837 10842 10848 10853 10858 10863 10867 10871 10876 10881 10884 10887 10891 10895 10898 10902 10908 10912 10914 10917 10921 10924 10927 10929 10931 10933 10936 10939 10942 10945 10946 10947 10948 10949 10952 10953 10955 10958 10963 10967 10970 10972 10973 10976 10979 10981 10983 10984 10984 10985 10987 10989 10991 10993 10995 10996 10996 10997 10997 10997 10998 10997 10995 10993 10990 10988 10986 10986 10986 10986 10987 10987 10987 10987 10987 10986 10986 10986 10986 10986 10985
10806 10810 10815 10820 10825 10830 10836 10842 10847 10851 10856 10860 10864 10869 10873 10877 10881 10885 10888 10892 10897 10901 10905 10908 10912 10915 10918 10921 10923 10925 10928 10931 10934 10936 10938 10940 10941 10943 10945 10946 10947 10952 10957 10960 10962 10964 10966 10969 10971 10974 10976 10978 10978 10980 10982 10984 10986 10988 10990 10992 10993 10994 10994 10995 10996 10995 10993 10990 10987 10983 10982 10981 10981 10981 10982 10982 10982 10982 10983 10984 10984 10984 10983 10982 10982
10792 10796 10801 10806 10812 10817 10824 10829 10835 10839 10843 10848 10852 10857 10862 10867 10871 10875 10879 10882 10886 10891 10895 10899 10902 10906 10909 10912 10915 10917 10919 10922 10925 10928 10930 10933 10935 10937 10938 10938 10941 10946 10949 10951 10953 10956 10958 10961 10963 10965 10969 10970 10972 10974 10977 10979 10980 10982 10985 10987 10990 10991 10992 10993 10994 10993 10991 10987 10982 10976 10972 10971 10972 10975 10978 10979 10980 10980 10981 10981 10981 10981 10980 10979 10979
10778 10783 10787 10792 10798 10804 10811 10817 10822 10826 10831 10836 10841 10846 10851 10856 10860 10865 10869 10873 10876 10880 10885 10889 10892 10896 10900 10903 10906 10908 10910 10913 10917 10919 10922 10925 10927 10929 10930 10930 10932 10937 10940 10943 10945 10948 10950 10953 10955 10957 10960 10963 10965 10968 10971 10973 10975 10977 10980 10983 10985 10988 10990 10991 10991 10992 10989 10981 10971 10964 10960 10962 10966 10971 10975 10977 10977 10977 10977 10977 10978 10978 10978 10976 10975
10763 10768 10773 10778 10785 10791 10797 10803 10808 10814 10819 10825 10830 10835 10840 10844 10849 10854 10858 10863 10867 10870 10873 10877 10882 10887 10890 10893 10896 10899 10902 10905 10908 10911 10913 10915 10917 10920 10922 10922 10924 10928 10931 10933 10936 10938 10942 10945 10948 10950 10953 10955 10958 10960 10963 10967 10969 10972 10975 10978 10980 10983 10985 10986 10989 10990 10981 10967 10958 10957 10958 10961 10963 10966 10969 10971 10972 10973 10973 10973 10974 10974 10974 10973 10972
10747 10752 10758 10763 10770 10777 10783 10788 10794 10801 10807 10812 10817 10822 10827 10832 10837 10843 10848 10852 10856 10858 10860 10864 10870 10876 10879 10882 10886 10891 10895 10898 10900 10901 10903 10906 10909 10912 10914 10915 10916 10920 10922 10924 10926 10929 10932 10936 10939 10943 10945 10948 10950 10953 10956 10960 10963 10966 10970 10972 10974 10977 10979 10982 10986 10981 10966 10954 10953 10956 10956 10956 10958 10959 10961 10963 10964 10965 10966 10966 10967 10968 10968 10969 10969
10729 10736 10742 10748 10755 10762 10768 10774 10780 10786 10793 10798 10804 10809 10814 10819 10825 10830 10835 10839 10842 10845 10849 10853 10858 10863 10867 10871 10876 10882 10887 10889 10890 10891 10894 10897 10901 10904 10906 10908 10910 10912 10914 10915 10917 10921 10924 10927 10931 10934 10937 10940 10943 10945 10949 10952 10955 10959 10962 10965 10968 10971 10973 10978 10981 10971 10954 10948 10952 10951 10949 10951 10953 10954 10954 10954 10954 10955 10957 10958 10959 10961 10961 10962 10963
10711 10718 10725 10731 10738 10745 10752 10758 10764 10771 10777 10784 10790 10795 10800 10806 10812 10817 10822 10826 10829 10833 10837 10842 10846 10851 10855 10860 10867 10872 10876 10877 10880 10882 10885 10888 10892 10895 10898 10900 10902 10904 10906 10906 10908 10912 10915 10918 10921 10925 10928 10932 10935 10937 10940 10943 10946 10950 10953 10956 10961 10964 10965 10969 10970 10958 10943 10940 10943 10943 10942 10944 10944 10943 10943 10942 10942 10944 10947 10949 10951 10953 10954 10956 10957
10693 10700 10707 10713 10721 10728 10735 10742 10749 10756 10763 10770 10776 10781 10787 10793 10799 10804 10809 10812 10816 10820 10824 10830 10835 10840 10845 10851 10857 10861 10864 10866 10869 10872 10874 10878 10882 10887 10890 10892 10893 10895 10897 10898 10900 10904 10906 10908 10911 10914 10919 10923 10926 10928 10931 10934 10937 10941 10944 10947 10951 10954 10955 10957 10955 10943 10932 10932 10936 10936 10936 10936 10934 10933 10936 10936 10935 10937 10940 10942 10944 10946 10948 10950 10952
10674 10681 10688 10695 10702 10709 10717 10726 10733 10740 10747 10754 10760 10767 10772 10778 10784 10789 10793 10797 10802 10807 10812 10818 10824 10829 10835 10841 10845 10848 10852 10855 10857 10860 10864 10868 10873 10877 10881 10883 10884 10886 10888 10889 10892 10896 10898 10899 10901 10904 10909 10913 10915 10918 10922 10925 10928 10931 10934 10937 10940 10942 10943 10944 10942 10935 10930 10931 10931 10930 10930 10930 10929 10931 10932 10932 10931 10933 10937 10939 10941 10941 10942 10944 10947
10656 10663 10670 10677 10683 10690 10698 10708 10716 10723 10729 10736 10743 10750 10756 10762 10767 10772 10777 10782 10788 10794 10800 10805 10811 10817 10823 10828 10832 10835 10839 10842 10844 10848 10853 10857 10862 10866 10870 10872 10874 10877 10879 10880 10883 10886 10889 10891 10893 10896 10899 10902 10905 10908 10912 10915 10918 10922 10925 10927 10929 10931 10932 10933 10932 10929 10928 10927 10924 10922 10923 10925 10926 10927 10926 10925 10926 10929 10933 10935 10935 10935 10936 10939 10944
10637 10645 10653 10660 10666 10673 10680 10689 10697 10704 10711 10719 10726 10732 10739 10745 10751 10757 10763 10769 10775 10780 10786 10792 10798 10804 10810 10815 10819 10822 10826 10828 10831 10836 10842 10846 10850 10855 10858 10861 10864 10867 10869 10871 10873 10877 10880 10883 10885 10887 10890 10893 10895 10899 10903 10906 10909 10913 10916 10917 10919 10920 10922 10923 10922 10922 10922 10920 10918 10917 10917 10918 10920 10921 10920 10919 10920 10923 10925 10926 10925 10925 10928 10933 10938
10620 10628 10636 10643 10650 10656 10663 10671 10678 10685 10693 10700 10707 10714 10721 10729 10736 10742 10748 10754 10760 10766 10772 10779 10786 10791 10796 10802 10806 10808 10811 10815 10819 10825 10830 10834 10838 10842 10846 10850 10853 10856 10858 10861 10864 10866 10870 10873 10876 10878 10881 10884 10887 10890 10893 10896 10900 10904 10906 10907 10909 10910 10911 10913 10913 10913 10914 10914 10913 10912 10911 10910 10911 10912 10913 10913 10915 10916 10917 10917 10916 10917 10920 10924 10927
10604 10611 10618 10626 10633 10639 10646 10653 10660 10666 10674 10681 10688 10695 10704 10712 10719 10725 10730 10736 10742 10750 10757 10766 10772 10775 10780 10787 10791 10794 10797 10802 10806 10812 10817 10821 10825 10830 10834 10837 10841 10845 10848 10851 10853 10855 10858 10862 10865 10868 10872 10875 10878 10881 10884 10886 10889 10893 10895 10897 10898 10900 10901 10903 10904 10904 10905 10906 10906 10905 10905 10903 10902 10903 10905 10907 10907 10907 10908 10908 10908 10909 10911 10913 10916
10587 10594 10601 10608 10615 10621 10628 10635 10642 10648 10654 10661 10668 10677 10685 10693 10700 10706 10712 10718 10726 10734 10743 10751 10756 10760 10765 10772 10777 10780 10784 10788 10793 10799 10803 10808 10812 10817 10821 10825 10829 10833 10837 10840 10842 10845 10848 10851 10853 10857 10862 10865 10868 10872 10874 10876 10879 10882 10885 10886 10888 10889 10891 10893 10895 10896 10896 10897 10897 10897 10897 10895 10893 10893 10896 10899 10900 10900 10899 10899 10898 10899 10900 10903 10905
10569 10576 10582 10588 10594 10601 10608 10616 10623 10629 10635 10641 10649 10657 10665 10672 10679 10686 10693 10701 10710 10719 10728 10736 10740 10744 10749 10756 10761 10766 10770 10774 10779 10784 10790 10795 10799 10804 10808 10812 10816 10820 10824 10828 10831 10834 10837 10839 10842 10846 10850 10854 10857 10861 10864 10866 10869 10871 10874 10876 10877 10879 10880 10882 10885 10886 10887 10887 10888 10888 10889 10888 10886 10885 10887 10890 10891 10890 10889 10888 10888 10889 10890 10893 10895
10552 10557 10562 10568 10574 10581 10588 10596 10603 10610 10616 10622 10629 10637 10644 10651 10658 10665 10675 10684 10694 10703 10711 10718 10722 10726 10732 10739 10746 10751 10755 10760 10764 10770 10775 10781 10786 10790 10795 10799 10803 10807 10811 10815 10818 10822 10825 10829 10831 10834 10838 10842 10845 10849 10852 10855 10858 10860 10862 10864 10865 10867 10868 10870 10873 10875 10877 10878 10879 10879 10880 10880 10879 10879 10879 10881 10881 10880 10879 10879 10879 10879 10880 10882 10884
10534 10539 10544 10550 10555 10561 10568 10575 10583 10590 10596 10603 10610 10616 10623 10630 10637 10645 10655 10665 10674 10683 10691 10696 10701 10707 10716 10723 10730 10735 10740 10745 10750 10756 10761 10767 10772 10776 10781 10785 10789 10793 10798 10802 10805 10809 10813 10817 10820 10824 10826 10829 10833 10836 10840 10843 10845 10848 10849 10851 10852 10854 10856 10859 10861 10863 10865 10867 10869 10869 10870 10871 10871 10871 10871 10871 10872 10872 10871 10871 10871 10870 10870 10871 10872
10518 10522 10526 10531 10537 10542 10548 10554 10562 10569 10576 10582 10589 10595 10602 10609 10616 10625 10633 10642 10651 10661 10669 10676 10683 10691 10699 10707 10714 10719 10725 10731 10737 10742 10747 10752 10757 10762 10767 10771 10776 10780 10785 10789 10792 10796 10800 10804 10808 10812 10815 10817 10820 10823 10827 10830 10832 10833 10835 10837 10840 10842 10845 10847 10849 10851 10854 10855 10857 10858 10859 10860 10861 10861 10861 10861 10861 10862 10862 10862 10862 10861 10860 10860 10861
10501 10505 10510 10514 10520 10525 10531 10537 10543 10550 10556 10562 10569 10576 10583 10589 10596 10604 10611 10620 10630 10640 10649 10657 10666 10674 10682 10690 10697 10703 10709 10716 10722 10727 10732 10737 10742 10747 10752 10757 10762 10767 10770 10774 10779 10783 10787 10791 10796 10799 10802 10805 10808 10811 10814 10816 10818 10819 10821 10824 10827 10831 10834 10836 10838 10840 10841 10843 10844 10846 10847 10849 10849 10850 10850 10850 10849 10850 10850 10851 10851 10851 10850 10849 10849
10487 10490 10494 10499 10504 10509 10514 10519 10525 10531 10537 10544 10550 10557 10563 10569 10575 10583 10591 10600 10610 10620 10629 10638 10646 10655 10663 10671 10679 10685 10692 10700 10706 10712 10717 10722 10728 10733 10738 10743 10748 10752 10756 10761 10765 10770 10774 10778 10782 10786 10789 10791 10794 10797 10800 10802 10804 10806 10808 10812 10815 10818 10822 10824 10827 10828 10829 10830 10832 10833 10835 10836 10837 10838 10838 10838 10838 10838 10838 10839 10839 10839 10839 10839 10838